FENGYUN 1C DEB, 41826

Orbit data source: Space-Track

FENGYUN 1C DEB, 41826 is space debris in SSO originally from a launch on Mon, 10 May 1999 UTC launched from the Taiyaun Space Center, China (TSC). Fengyun 1C debris stems from the Chinese weather satellite Fengyun-1C, which was intentionally destroyed by a Chinese anti-satellite missile in 2007. This event dramatically increased the amount of space debris, with thousands of trackable fragments posing hazards to satellites and human spaceflight. The Fengyun 1C debris cloud has become a focal point in discussions about space sustainability and the need for international regulations to prevent the creation of new debris.

Loading next visibility...
Identifier
41826, 1999-025EYD
Orbit
SSO
Country
Flag of CNCN / PRC
Related business
Manufacturer
Unknown
Mission
Spacecraft
Bus & Motor
Unknown
Mass
Unknown
Launch date (UTC)
1999-05-10 (26 years ago)
Launch vehicle
Unknown
Launch site
Taiyaun Space Center, China (TSC)
Object type
Payload
Rocket body
Debris
Shape & HBR
Unknown shape, 0.1 m
Radar Cross Section
Small (<0.1 m²)

Expand to show TLE details & history
Last TLE update: 18 hours ago

TLE from 18 hours ago
0 FENGYUN 1C DEB
1 41826U 99025EYD 25288.11160377  .00003368  00000-0  14852-2 0  9999
2 41826  98.7389 354.3299 0054700  35.9688 324.5152 14.23219988465269
Epoch: 2025-10-15T02:40Z
TLE epoch observation values (Epoch: 2025-10-15T02:40:42.565Z)
Latitude
-0.00006°
Longitude
-69.73781°
Altitude
785.432 km
Speed
7.478 km/s
True Right ascension
23h 37m 19s
True Declination
0° 00' 00"
Sunlit
Object was in full shadow at epoch
Visualization orbit readout
Latitude
Unknown
Longitude
Unknown
Altitude
Unknown
Speed
Unknown
Apparent Right ascension
Unknown
Apparent Declination
Unknown
Sunlit
N/A
Visualization observer readout
Local Sidereal Time
15:20:47
Azimuth
Unknown
Elevation
Unknown
Doppler factor
Unknown
Orbital elements
Apogee altitude
850.967 km
Perigee altitude
772.311 km
Semi-major axis
7,189.776 km
Eccentricity
0.00547
Inclination
98.7389°
RAAN
354.3299°
Arg. of periapsis
35.9688°
True anomaly
324.14931°
Mean anomaly
324.5152°
Eccentric anomaly
324.33246°
Mean motion
3.56016 °/min
Orbital period
101.12 mins
BSTAR
0.0014852
Loading maneuver chart data...
Computing Atmospheric mass density...

Documentation

Showing up to 5 results
|